Location: U-46 Planetarium
(42.0300°N, 88.2740°W)
Time: 05:41:41
(UTC-05:00)

Cosmos 2263 Rocket - Visible Passes

Search period start: 19 June 2018 00:00
Search period end: 29 June 2018 00:00
Orbit: 823 x 849 km, 71.0° (Epoch: 18 June)

Date Brightness Start Highest point End Pass type
(mag) Time Alt. Az. Time Alt. Az. Time Alt. Az.
19 Jun 4.9 22:33:05 10° W 22:37:16 21° NW 22:41:27 10° N visible
20 Jun 4.8 22:16:06 10° WSW 22:20:28 22° NW 22:24:48 10° N visible
21 Jun 4.8 21:59:09 10° WSW 22:03:39 24° NW 22:08:10 10° N visible
22 Jun 4.7 21:42:14 10° WSW 21:46:52 25° NW 21:51:30 10° N visible
23 Jun 4.6 21:25:18 10° WSW 21:30:04 27° NW 21:34:51 10° N visible
24 Jun 4.8 04:33:45 10° N 04:38:24 26° NE 04:43:00 10° ESE visible
24 Jun 4.6 21:08:24 10° WSW 21:13:17 29° NW 21:18:12 10° N visible
25 Jun 4.9 04:17:06 10° N 04:21:36 24° NE 04:26:03 10° ESE visible
26 Jun 4.9 04:00:27 10° N 04:04:48 22° NE 04:09:06 10° ESE visible
27 Jun 5.0 03:43:49 10° N 03:48:00 21° NE 03:52:08 10° E visible
28 Jun 5.0 03:27:12 10° N 03:31:11 20° NE 03:35:10 10° E visible
